Weather History for Thermopolis, WY

Change the Weather History Date:

Saturday, October 29, 2011

  Actual Average (KWRL) Record (KWRL)
Temperature  
Mean Temperature 39 °F 40 °F  
Max Temperature 46 °F 55 °F 80 °F (1968)
Min Temperature 32 °F 26 °F 2 °F (1991)
Degree Days  
Heating Degree Days 26 25  
Month to date heating degree days 554  
Since 1 July heating degree days 811  
Cooling Degree Days 0 0  
Month to date cooling degree days 0  
Year to date cooling degree days 535  
Moisture  
Dew Point 11 °F    
Average Humidity 34    
Maximum Humidity 70    
Minimum Humidity 11    
Precipitation  
Precipitation 0.00 in 0.01 in 0.11 in (1973)
Month to date precipitation 0.66  
Year to date precipitation 6.96  
Sea Level Pressure  
Sea Level Pressure 30.09 in    
Wind  
Wind Speed 19 mph ()    
Max Wind Speed 36 mph    
Max Gust Speed 48 mph    
Visibility 10.0 miles    
Events      
T = Trace of Precipitation, MM = Missing Value Source: Averaged Metar Reports

Daily Weather History Graph

Daily Weather History Graph

Search for Another Location

Airport:

Trip Planner

Search our weather history database for the weather conditions in past years. The results will help you decide how hot, cold, wet, or windy it might be!

Date:

Astronomy

Oct. 29, 2011 Rise Set
Actual Time 7:44 AM MDT 6:08 PM MDT
Civil Twilight 7:14 AM MDT 6:38 PM MDT
Nautical Twilight 6:41 AM MDT 7:11 PM MDT
Astronomical Twilight 6:07 AM MDT 7:44 PM MDT
Moon 11:15 AM MDT (10/29) 8:29 PM MDT (10/29)
Length of Visible Light 11h 23m
Length of Day
10h 24m
Waxing Crescent, 12% of the Moon is Illuminated
Oct 29
Waxing Crescent
Nov 2
First Quarter
Nov 10
Full
Nov 18
Last Quarter
Nov 24
New

Hourly Weather History & Observations

Time (MDT) Temp. Windchill Dew Point Humidity Pressure Visibility Wind Dir Wind Speed Gust Speed Precip Events Conditions
12:15 AM 39.2 °F 30.5 °F -0.4 °F 19% 30.11 in 10.0 mi SW 16.1 mph 19.6 mph N/A   Mostly Cloudy
12:35 AM 39.2 °F 31.2 °F -0.4 °F 19% 30.11 in 10.0 mi SW 13.8 mph - N/A   Mostly Cloudy
1:15 AM 37.4 °F 28.5 °F -0.4 °F 20% 30.10 in 10.0 mi SW 15.0 mph - N/A   Overcast
1:35 AM 39.2 °F 30.2 °F 1.4 °F 21% 30.09 in 10.0 mi SW 17.3 mph 24.2 mph N/A   Overcast
1:55 AM 41.0 °F 30.9 °F 1.4 °F 19% 30.08 in 10.0 mi SW 24.2 mph 32.2 mph N/A   Mostly Cloudy
2:35 AM 41.0 °F 29.0 °F -0.4 °F 18% 30.05 in 10.0 mi SW 35.7 mph 43.7 mph N/A   Mostly Cloudy
2:55 AM 41.0 °F 30.0 °F -0.4 °F 18% 30.06 in 10.0 mi SW 28.8 mph 40.3 mph N/A   Overcast
3:15 AM 41.0 °F 30.2 °F 3.2 °F 21% 30.06 in 10.0 mi WSW 27.6 mph 34.5 mph N/A   Scattered Clouds
3:35 AM 42.8 °F 31.6 °F 1.4 °F 18% 30.05 in 10.0 mi WSW 34.5 mph 48.3 mph N/A   Clear
3:55 AM 42.8 °F 31.9 °F -5.8 °F 13% 30.05 in 10.0 mi WSW 32.2 mph 47.2 mph N/A   Clear
4:15 AM 42.8 °F 31.8 °F -9.4 °F 11% 30.03 in 10.0 mi SW 33.4 mph 47.2 mph N/A   Scattered Clouds
4:35 AM 42.8 °F 31.8 °F -9.4 °F 11% 30.02 in 10.0 mi SW 33.4 mph 43.7 mph N/A   Clear
4:55 AM 41.0 °F 29.1 °F -9.4 °F 12% 30.01 in 10.0 mi SW 34.5 mph 43.7 mph N/A   Clear
5:15 AM 41.0 °F 29.3 °F -7.6 °F 13% 30.02 in 10.0 mi SW 33.4 mph 47.2 mph N/A   Scattered Clouds
5:35 AM 41.0 °F 29.0 °F -5.8 °F 14% 30.01 in 10.0 mi SW 35.7 mph 43.7 mph N/A   Clear
5:55 AM 41.0 °F 29.7 °F -2.2 °F 16% 30.01 in 10.0 mi SW 31.1 mph 41.4 mph N/A   Clear
6:15 AM 41.0 °F 31.4 °F -0.4 °F 18% 30.03 in 10.0 mi SW 21.9 mph 27.6 mph N/A   Clear
6:35 AM 41.0 °F 34.3 °F 1.4 °F 19% 30.03 in 10.0 mi WSW 11.5 mph - N/A   Clear
6:55 AM 41.0 °F 33.1 °F 5.0 °F 23% 30.04 in 10.0 mi West 15.0 mph - N/A   Clear
7:15 AM 41.0 °F 34.3 °F 3.2 °F 21% 30.04 in 10.0 mi WSW 11.5 mph - N/A   Clear
7:35 AM 41.0 °F 33.5 °F 5.0 °F 23% 30.03 in 10.0 mi West 13.8 mph - N/A   Clear
7:55 AM 41.0 °F 34.3 °F 6.8 °F 24% 30.03 in 10.0 mi SW 11.5 mph - N/A   Clear
8:15 AM 42.8 °F 37.5 °F 6.8 °F 23% 30.04 in 10.0 mi WSW 9.2 mph - N/A   Clear
8:35 AM 42.8 °F 38.6 °F 6.8 °F 23% 30.05 in 10.0 mi SW 6.9 mph - N/A   Clear
8:55 AM 41.0 °F - 6.8 °F 24% 30.04 in 10.0 mi North - - N/A   Clear
9:15 AM 41.0 °F 34.7 °F 8.6 °F 26% 30.04 in 10.0 mi SSW 10.4 mph - N/A   Clear
9:35 AM 42.8 °F 38.6 °F 8.6 °F 25% 30.04 in 10.0 mi SSW 6.9 mph - N/A   Clear
9:55 AM 42.8 °F 34.3 °F 8.6 °F 25% 30.04 in 10.0 mi SW 19.6 mph 23.0 mph N/A   Clear
10:15 AM 42.8 °F 34.3 °F 10.4 °F 27% 30.04 in 10.0 mi WSW 19.6 mph 28.8 mph N/A   Clear
10:35 AM 42.8 °F 34.3 °F 10.4 °F 27% 30.04 in 10.0 mi WSW 19.6 mph - N/A   Clear
10:55 AM 42.8 °F 34.5 °F 12.2 °F 29% 30.04 in 10.0 mi WSW 18.4 mph 25.3 mph N/A   Clear
11:15 AM 44.6 °F 36.6 °F 12.2 °F 27% 30.04 in 10.0 mi WSW 19.6 mph 26.5 mph N/A   Clear
11:35 AM 44.6 °F 37.2 °F 12.2 °F 27% 30.06 in 10.0 mi WSW 17.3 mph 25.3 mph N/A   Clear
11:55 AM 46.4 °F 39.8 °F 14.0 °F 27% 30.05 in 10.0 mi West 16.1 mph 20.7 mph N/A   Clear
12:15 PM 46.4 °F 40.1 °F 14.0 °F 27% 30.05 in 10.0 mi West 15.0 mph 19.6 mph N/A   Clear
12:35 PM 46.4 °F 40.4 °F 14.0 °F 27% 30.06 in 10.0 mi NNW 13.8 mph 17.3 mph N/A   Clear
12:55 PM 46.4 °F 40.7 °F 8.6 °F 22% 30.06 in 10.0 mi North 12.7 mph 18.4 mph N/A   Clear
1:15 PM 44.6 °F - 14.0 °F 29% 30.06 in 10.0 mi North - - N/A   Clear
1:35 PM 44.6 °F 36.6 °F 15.8 °F 31% 30.05 in 10.0 mi North 19.6 mph - N/A   Clear
1:55 PM 44.6 °F 36.6 °F 12.2 °F 27% 30.06 in 10.0 mi North 19.6 mph - N/A   Clear
2:35 PM 44.6 °F - 10.4 °F 25% 30.06 in 10.0 mi North - - N/A   Clear
2:55 PM 44.6 °F 35.7 °F 12.2 °F 27% 30.07 in 10.0 mi North 24.2 mph - N/A   Clear
3:15 PM 44.6 °F 35.3 °F 14.0 °F 29% 30.07 in 10.0 mi North 26.5 mph - N/A   Clear
3:35 PM 44.6 °F 36.4 °F 14.0 °F 29% 30.08 in 10.0 mi North 20.7 mph - N/A   Clear
3:55 PM 44.6 °F - 12.2 °F 27% 30.09 in 10.0 mi North - - N/A   Clear
4:15 PM 44.6 °F 35.9 °F 14.0 °F 29% 30.10 in 10.0 mi NNW 23.0 mph - N/A   Clear
4:35 PM 44.6 °F 36.4 °F 12.2 °F 27% 30.10 in 10.0 mi NNW 20.7 mph - N/A   Clear
4:55 PM 41.0 °F - 21.2 °F 45% 30.10 in 10.0 mi North - - N/A   Clear
5:15 PM 39.2 °F - 23.0 °F 52% 30.10 in 10.0 mi North - - N/A   Clear
5:35 PM 37.4 °F 25.6 °F 23.0 °F 56% 30.11 in 10.0 mi North 26.5 mph - N/A   Clear
5:55 PM 35.6 °F - 24.8 °F 65% 30.12 in 10.0 mi North - - N/A   Clear
6:15 PM 35.6 °F 23.0 °F 26.6 °F 70% 30.14 in 10.0 mi North 27.6 mph - N/A   Clear
6:35 PM 35.6 °F 23.4 °F 24.8 °F 65% 30.15 in 10.0 mi North 25.3 mph - N/A   Clear
6:55 PM 35.6 °F - 26.6 °F 70% 30.15 in 10.0 mi North - - N/A   Clear
7:15 PM 33.8 °F - 24.8 °F 70% 30.16 in 10.0 mi North - - N/A   Clear
7:35 PM 33.8 °F - 23.0 °F 65% 30.17 in 10.0 mi North - - N/A   Clear
7:55 PM 33.8 °F - 23.0 °F 65% 30.18 in 10.0 mi North - - N/A   Clear
8:15 PM 33.8 °F - 23.0 °F 65% 30.18 in 10.0 mi North - - N/A   Clear
8:35 PM 33.8 °F - 21.2 °F 60% 30.20 in 10.0 mi North - - N/A   Clear
8:55 PM 33.8 °F - 21.2 °F 60% 30.20 in 10.0 mi North - - N/A   Clear
9:15 PM 32.0 °F - 21.2 °F 64% 30.21 in 10.0 mi North - - N/A   Clear
9:35 PM 33.8 °F 23.5 °F 21.2 °F 60% 30.21 in 10.0 mi NNW 16.1 mph - N/A   Clear
9:55 PM 33.8 °F 23.5 °F 19.4 °F 56% 30.22 in 10.0 mi NNW 16.1 mph - N/A   Clear
10:15 PM 32.0 °F - 21.2 °F 64% 30.22 in 10.0 mi North - - N/A   Clear
10:35 PM 33.8 °F - 19.4 °F 56% 30.23 in 10.0 mi North - - N/A   Clear
11:15 PM 33.8 °F 30.8 °F 19.4 °F 56% 30.22 in 10.0 mi NNW 3.5 mph - N/A   Clear
11:35 PM 33.8 °F - 19.4 °F 56% 30.22 in 10.0 mi Calm Calm - N/A   Clear
11:55 PM 33.8 °F - 19.4 °F 56% 30.21 in 10.0 mi North - - N/A   Clear